FW7611 Weather Reports


Display with metric or nautical units.
time (UTC)temp
F
wind
direction
speed
MPH
gust
MPH
rain 1hr
in
rain 24hr
in
rain mn
in
humidity
%
barometer
mb
20260508174543 67 225 1.0 6.0 0.00 0.05 0.00 33 1018.0
20260508173043 68 161 2.0 6.0 0.00 0.05 0.00 34 1018.2
20260508171536 67 264 1.0 7.0 0.00 0.05 0.00 32 1018.3
20260508170040 66 49 1.0 5.0 0.00 0.05 0.00 35 1018.4
20260508164554 66 77 1.0 5.0 0.00 0.05 0.00 39 1018.7
20260508163040 66 155 2.0 7.0 0.00 0.05 0.00 39 1019.0
20260508161547 64 289 0.0 3.0 0.00 0.05 0.00 38 1019.3
20260508160040 65 136 1.0 4.0 0.00 0.05 0.00 37 1019.6
20260508154541 64 185 2.0 5.0 0.00 0.05 0.00 42 1019.6
20260508153037 63 222 0.0 5.0 0.00 0.05 0.00 43 1019.7
20260508151535 63 165 1.0 5.0 0.00 0.05 0.00 46 1019.9
20260508150045 61 57 1.0 3.0 0.00 0.05 0.00 45 1019.9
20260508144551 62 268 0.0 2.0 0.00 0.05 0.00 48 1019.9
20260508143037 60 182 0.0 3.0 0.00 0.05 0.00 47 1019.9
20260508141542 60 302 1.0 3.0 0.00 0.05 0.00 53 1019.9
20260508140048 58 0 0.0 3.0 0.00 0.05 0.00 53 1019.8
20260508134546 58 319 0.0 2.0 0.00 0.07 0.00 56 1019.8
20260508133105 57 333 0.0 3.0 0.00 0.07 0.00 59 1019.7
20260508131538 56 0 0.0 2.0 0.00 0.07 0.00 65 1019.7
20260508130038 54 0 0.0 3.0 0.00 0.07 0.00 74 1019.5
20260508124544 52 0 0.0 2.0 0.00 0.15 0.00 76 1019.4
20260508123052 49 0 0.0 0.0 0.00 0.15 0.00 84 1019.4
20260508121540 48 0 0.0 2.0 0.00 0.15 0.00 92 1019.4
20260508120040 46 0 0.0 1.0 0.00 0.15 0.00 93 1019.1
20260508114536 44 0 0.0 0.0 0.00 0.19 0.00 94 1018.8
20260508113055 43 0 0.0 0.0 0.00 0.19 0.00 94 1018.6
20260508111544 42 0 0.0 0.0 0.00 0.19 0.00 93 1018.5
20260508110050 43 0 0.0 0.0 0.00 0.19 0.00 93 1018.1
20260508104540 42 0 0.0 0.0 0.00 0.19 0.00 93 1017.8
20260508103035 42 0 0.0 0.0 0.00 0.19 0.00 92 1017.7
20260508101547 43 0 0.0 0.0 0.00 0.19 0.00 91 1017.6
20260508100040 43 0 0.0 0.0 0.00 0.19 0.00 90 1017.5
20260508094540 44 0 0.0 0.0 0.00 0.19 0.00 89 1017.2
20260508093040 45 0 0.0 0.0 0.00 0.19 0.00 88 1017.1
20260508091542 45 0 0.0 0.0 0.00 0.19 0.00 88 1017.0
20260508090045 46 0 0.0 2.0 0.00 0.19 0.00 87 1016.8
20260508084535 45 0 0.0 0.0 0.00 0.19 0.00 92 1016.8
20260508083042 45 0 0.0 0.0 0.00 0.19 0.00 93 1016.7
20260508081540 45 0 0.0 0.0 0.00 0.19 0.00 93 1016.6
20260508080035 46 0 0.0 0.0 0.00 0.19 0.00 93 1016.5
20260508074542 46 0 0.0 0.0 0.00 0.21 0.00 93 1016.6
20260508073034 46 0 0.0 0.0 0.00 0.21 0.00 93 1016.5
20260508071549 47 0 0.0 0.0 0.00 0.21 0.00 93 1016.3
20260508070036 46 0 0.0 0.0 0.00 0.21 0.00 94 1016.3
20260508064538 46 0 0.0 0.0 0.00 0.27 0.00 93 1016.1
20260508063047 46 0 0.0 0.0 0.00 0.27 0.00 93 1016.0
20260508061541 46 0 0.0 0.0 0.00 0.27 0.00 93 1016.2
20260508060037 46 0 0.0 0.0 0.00 0.27 0.00 92 1016.2
20260508054535 47 0 0.0 0.0 0.00 0.28 0.00 92 1016.1
20260508053058 48 0 0.0 0.0 0.00 0.28 0.00 90 1016.0
20260508051535 48 0 0.0 0.0 0.00 0.28 0.00 90 1015.8
20260508050041 48 0 0.0 0.0 0.00 0.28 0.00 91 1015.8
20260508044540 48 0 0.0 0.0 0.00 0.29 0.00 92 1015.8
20260508043037 48 0 0.0 0.0 0.00 0.29 0.00 92 1015.5
20260508041558 49 0 0.0 0.0 0.00 0.29 0.00 92 1015.4
20260508040043 49 0 0.0 0.0 0.00 0.29 0.00 91 1015.4
20260508034541 50 0 0.0 0.0 0.00 0.31 0.29 90 1015.3
20260508033041 50 0 0.0 0.0 0.00 0.31 0.29 91 1015.3
20260508031540 50 0 0.0 0.0 0.00 0.31 0.29 92 1015.2
20260508030038 50 0 0.0 0.0 0.00 0.31 0.29 93 1015.0
20260508024538 50 0 0.0 0.0 0.00 0.34 0.29 93 1014.9
20260508023035 51 0 0.0 0.0 0.00 0.34 0.29 94 1014.9
20260508021541 51 0 0.0 0.0 0.00 0.34 0.29 94 1014.6
20260508020045 51 0 0.0 0.0 0.00 0.34 0.29 94 1014.3
20260508014540 52 0 0.0 0.0 0.00 0.35 0.29 94 1014.1
20260508013038 53 0 0.0 1.0 0.00 0.35 0.29 94 1013.8
20260508011540 53 0 0.0 0.0 0.00 0.35 0.29 94 1013.3
20260508010034 53 0 0.0 0.0 0.00 0.35 0.29 93 1013.2
20260508004534 54 0 0.0 0.0 0.00 0.38 0.29 93 1013.3
20260508003036 54 0 0.0 2.0 0.00 0.38 0.29 92 1013.0
20260508001542 55 0 0.0 0.0 0.00 0.38 0.29 92 1013.2
20260508000036 56 0 0.0 0.0 0.00 0.38 0.29 90 1012.9
20260507234543 57 0 0.0 0.0 0.00 0.38 0.29 89 1012.9
20260507233056 57 0 0.0 2.0 0.00 0.38 0.29 89 1012.7
20260507231541 57 46 0.0 2.0 0.00 0.38 0.29 88 1012.4
20260507230043 57 37 0.0 3.0 0.00 0.38 0.29 87 1012.2
20260507224548 58 18 1.0 6.0 0.00 0.38 0.29 87 1011.7
20260507223035 57 29 1.0 5.0 0.00 0.38 0.29 89 1011.6
20260507221544 57 30 1.0 4.0 0.00 0.38 0.29 88 1011.7
20260507220041 58 76 0.0 5.0 0.00 0.38 0.29 88 1011.6
20260507214537 57 28 2.0 7.0 0.00 0.38 0.29 88 1011.3
20260507213040 58 17 3.0 12.0 0.00 0.38 0.29 88 1011.3
20260507211537 57 33 2.0 12.0 0.00 0.38 0.29 90 1011.2
20260507210049 57 31 2.0 9.0 0.00 0.38 0.29 90 1011.2
20260507204535 57 360 1.0 6.0 0.00 0.38 0.29 91 1011.1
20260507203044 57 34 3.0 10.0 0.04 0.38 0.29 92 1011.0
20260507201540 57 51 3.0 15.0 0.04 0.38 0.29 92 1011.2
20260507200038 57 5 1.0 6.0 0.05 0.38 0.29 93 1011.1
20260507194607 57 13 2.0 8.0 0.05 0.38 0.29 92 1011.7
20260507193038 58 352 1.0 5.0 0.01 0.34 0.25 91 1011.4
20260507191541 59 14 2.0 11.0 0.01 0.34 0.25 89 1011.0
20260507190049 59 5 1.0 13.0 0.00 0.33 0.24 88 1010.9
20260507184540 60 75 1.0 10.0 0.00 0.33 0.24 88 1011.2
20260507183044 60 31 2.0 8.0 0.00 0.33 0.24 86 1011.0
20260507181537 61 60 2.0 7.0 0.00 0.33 0.24 87 1011.1
20260507180039 62 42 2.0 9.0 0.00 0.33 0.24 86 1011.0